Regional Weather Roundup
Issued by NWS

Home | Current Version | Previous Version | Graphics & Text | Print | Product List | Glossary On
Versions: 1 2 3 4 5 6 7 8 9 10 11 12 13 14 15 16 17 18 19 20 21 22 23 24 25 26 27 28 29 30 31 32 33 34 35 36 37 38 39 40 41 42 43 44 45 46 47 48 49 50
000
ASUS45 KBOU 291410
RWRCO

WEATHER ROUNDUP FOR COLORADO
NATIONAL WEATHER SERVICE DENVER/BOULDER CO
800 AM MDT WED JUL 29 2015

NOTE: "FAIR" INDICATES FEW OR NO CLOUDS BELOW 12000 FEET WITH NO
SIGNIFICANT WEATHER AND/OR OBSTRUCTIONS TO VISIBILITY.

COZ001>005-013-030-031-291500-
...NORTHWEST COLORADO...

CITY           SKY/WX    TMP DP  RH WIND       PRES   REMARKS
CRAIG          SUNNY     49  38  65 CALM      30.39R
HAYDEN         SUNNY     52  30  43 E8        30.39S
MEEKER         SUNNY     50  34  54 CALM      30.39R
MOUNT WERNER   NOT AVBL
STEAMBOAT SPGS SUNNY     47  36  64 CALM      30.41S
WALDEN         SUNNY     45  32  61 CALM      30.46S
$$

COZ006>008-011-291500-
...WEST CENTRAL VALLEYS...

CITY           SKY/WX    TMP DP  RH WIND       PRES   REMARKS
GRAND JUNCTION SUNNY     65  36  34 S8        30.25R
MONTROSE       SUNNY     62  37  39 SE9       30.34R
EAGLE          MOSUNNY   52  36  54 CALM      30.43R
RIFLE          SUNNY     59  39  47 CALM      30.34R
DELTA          SUNNY     63  37  36 E3        30.31R
NUCLA          SUNNY     61  32  33 E7        30.35R
$$

COZ017>023-064>068-291500-
...SOUTHWEST COLORADO...

CITY           SKY/WX    TMP DP  RH WIND       PRES   REMARKS
DURANGO        MOSUNNY   60  44  55 CALM      30.36R
CORTEZ         SUNNY     60  41  49 CALM      30.29R
PAGOSA SPRINGS MOSUNNY   61  46  57 CALM      30.44R
TELLURIDE      SUNNY     55  35  46 SE5       30.53R
WOLF CREEK PAS NOT AVBL
$$

COZ009-010-012-014-032>034-037-058>063-291500-
...CENTRAL COLORADO...

CITY           SKY/WX    TMP DP  RH WIND       PRES   REMARKS
ASPEN          SUNNY     52  38  58 VRB3      30.45R
BUENA VISTA    SUNNY     56  39  53 CALM      30.51R
COPPER MTN     SUNNY     54  36  50 SW6       30.72R
BERTHOUD PASS  FAIR      41  32  70 W17G25    30.75R
COTTONWOOD PAS SUNNY     55  37  50 CALM      30.60R
GUNNISON       SUNNY     48  34  57 CALM      30.50R
KREMMLING      SUNNY     50  36  57 CALM      30.47S
LEADVILLE      SUNNY     49  37  63 CALM      30.59R
MONARCH PASS   SUNNY     50  39  66 SW3       30.82R
SALIDA         SUNNY     60  42  52 CALM      30.54S
SUNLIGHT       SUNNY     55  27  33 CALM      30.66R
WILKERSON PASS SUNNY     45  39  81 W5        30.70R
$$

COZ069>075-291500-
...SAN LUIS VALLEY/SANGRE DE CRISTO MOUNTAINS...

CITY           SKY/WX    TMP DP  RH WIND       PRES   REMARKS
ALAMOSA        MOSUNNY   57  49  74 SW6       30.42R
LA VETA PASS   SUNNY     54  43  66 MISG      30.61R
SAGUACHE       SUNNY     59  43  55 NW10      30.46R
$$

COZ035-036-038>040-291500-
...NORTHERN COLORADO FRONT RANGE...

CITY           SKY/WX    TMP DP  RH WIND       PRES   REMARKS
DENVER INTL AP MOSUNNY   68  47  46 S8        30.33R
DMNS CITY PARK   N/A     68  44  41 W1        30.33R
AURORA         MOSUNNY   66  48  52 S9        30.34R
FRONT RANGE AP MOSUNNY   64  46  52 S8G18     30.34R
ERIE MUNI ARPT SUNNY     63  46  54 NW6       30.32R
BOULDER MUN AP SUNNY     63  43  48 N5        30.33R
CENTENNIAL     MOSUNNY   66  47  50 S14       30.34R
BROOMFIELD     MOSUNNY   66  41  39 W5        30.35R
FORT COLLINS   SUNNY     61  41  48 N10       30.34R
LONGMONT       SUNNY     65  45  48 N7        30.34R
$$

COZ041-046-047-076>085-087-088-291500-
...PIKES PEAK/PALMER DIVIDE AND SOUTHERN FOOTHILLS...

CITY           SKY/WX    TMP DP  RH WIND       PRES   REMARKS
COLO. SPRINGS  PTSUNNY   64  47  53 CALM      30.40R
A. F. ACADEMY  MOSUNNY   60  47  62 SE5       30.40S
ELLICOTT       PTSUNNY  N/A N/A N/A SE5       30.37R
FALCON         CLOUDY    60  46  59 W3        30.44R
FORT CARSON    CLOUDY    64  50  60 NE3       30.36R
LIMON          MOSUNNY   61  50  67 SE5       30.34S
MONUMENT HILL  MOSUNNY   55  46  71 S7        30.42S
TRINIDAD       SUNNY     65  47  52 NW10      30.34R
$$

COZ042>045-048>051-090-091-291500-
...NORTHEAST COLORADO...

CITY           SKY/WX    TMP DP  RH WIND       PRES   REMARKS
GREELEY ARPT   SUNNY     63  46  55 E8        30.32S
AKRON          MOSUNNY   67  50  54 SE12      30.32S
BURLINGTON     MOSUNNY   65  54  67 E12       30.29S
WRAY           MOSUNNY   62  51  66 E3        30.31R
STERLING       NOT AVBL
HOLYOKE        MOSUNNY   63  50  63 E8        30.32R
FORT MORGAN    MOSUNNY   65  47  50 SE5       30.32R
$$

COZ086-089-092>099-291500-
...SOUTHEAST COLORADO...

CITY           SKY/WX    TMP DP  RH WIND       PRES   REMARKS
PUEBLO         MOSUNNY   72  51  47 N8        30.29R
LA JUNTA       PTSUNNY   71  59  65 E9        30.27R
LAMAR          MOSUNNY   71  55  56 SE12      30.26R
SPRINGFIELD      N/A     67  55  65 E18G24    30.30R
$$


USA.gov is the U.S. government's official web portal to all federal, state and local government web resources and services.